Location: Haliburton Scout Reserve
(45.0900°N, 78.3200°W)
Time: 11:28:22
(UTC-04:00)

JY1SAT - Visible Passes

Search period start: 31 May 2023 00:00
Search period end: 10 June 2023 00:00
Orbit: 555 x 574 km, 97.6° (Epoch: 31 May)

Date Brightness Start Highest point End Pass type
(mag) Time Alt. Az. Time Alt. Az. Time Alt. Az.
31 May ? 22:52:18 17° SSW 22:55:08 41° W 22:58:59 10° NNW visible
01 Jun ? 22:52:32 16° SSW 22:55:24 41° W 22:59:14 10° NNW visible
02 Jun ? 22:52:46 16° SSW 22:55:39 41° W 22:59:29 10° NNW visible
03 Jun ? 22:52:59 16° SSW 22:55:54 40° W 22:59:44 10° NNW visible
04 Jun ? 22:53:11 15° SSW 22:56:08 40° W 22:59:58 10° NNW visible
05 Jun ? 22:53:23 15° SSW 22:56:22 40° W 23:00:11 10° NNW visible
06 Jun ? 22:53:34 15° SSW 22:56:35 39° W 23:00:23 10° NNW visible
07 Jun ? 22:53:45 15° SSW 22:56:48 39° W 23:00:36 10° NNW visible
08 Jun ? 22:53:55 14° SSW 22:57:00 39° W 23:00:47 10° NNW visible
09 Jun ? 22:54:05 14° SSW 22:57:11 38° W 23:00:58 10° NNW visible
